Regional Weather Roundup
Issued by NWS

Home | Current Version | Previous Version | Text Only | Print | Product List | Glossary On
Versions: 1 2 3 4 5 6 7 8 9 10 11 12 13 14 15 16 17 18 19 20 21 22 23 24 25 26 27 28 29 30 31 32 33 34 35 36 37 38 39 40 41 42 43 44 45 46 47 48 49 50
000
ASUS43 KLSX 230459
RWRMO

WEATHER SUMMARY FOR MISSOURI
NATIONAL WEATHER SERVICE SPRINGFIELD MO
1200 AM CDT SAT AUG 23 2014

NOTE: "FAIR" INDICATES FEW OR NO CLOUDS BELOW 12,000 FEET WITH NO
       SIGNIFICANT WEATHER AND/OR OBSTRUCTIONS TO VISIBILITY.
       CURRENT SKY AND/OR WEATHER CONDITIONS ARE NOT AVAILABLE FOR
       CHILLICOTHE AND FARMINGTON.

MOZ001>031-035>038-043-044-053-054-230600-
...NORTHERN AND WESTERN MISSOURI...

CITY           SKY/WX    TMP DP  RH WIND       PRES   REMARKS
KANSAS CTY INT MOCLDY    80  71  74 SE8       29.93S
KANSAS C DTWN  MOCLDY    83  69  62 SE3       29.91S
LEE`S SUMMIT   PTCLDY    78  69  73 E6        29.95R
ST JOSEPH      MOCLDY    80  76  87 E5        29.92S
KIRKSVILLE     PTCLDY    79  76  90 E5        29.96S

$$
MOZ066>068-077>081-088>096-101>105-230600-
...SOUTHWEST MISSOURI...

CITY           SKY/WX    TMP DP  RH WIND       PRES   REMARKS
SPRINGFIELD    CLEAR     80  70  71 S7        29.99R
JOPLIN         CLEAR     83  72  69 S10       29.97R

$$
MOZ032>034-039>042-045>050-055>058-069>072-230600-
...CENTRAL MISSOURI...

CITY           SKY/WX    TMP DP  RH WIND       PRES   REMARKS
COLUMBIA       PTCLDY    80  76  87 E6        29.94R
JEFFERSON CITY CLEAR     79  76  90 CALM      29.92S
ROLLA          PTCLDY    80  69  69 S10       29.96R
SEDALIA        PTCLDY    78  75  90 S3        29.95R
OSAGE BEACH    PTCLDY    79  72  78 CALM      29.96R

$$
MOZ051-052-059>065-230600-
...EAST CENTRAL MISSOURI...

CITY           SKY/WX    TMP DP  RH WIND       PRES   REMARKS
ST LOUIS INTL  MOCLDY    83  78  85 E5        29.94F HX  93
SPIRIT OF STL  MOCLDY    78  76  93 CALM      29.92F
ST CHARLES     MOCLDY    79  76  90 CALM      29.93S

$$
MOZ072>076-082>087-097>100-106>115-230600-
...SOUTH CENTRAL AND SOUTHEAST MISSOURI...

CITY           SKY/WX    TMP DP  RH WIND       PRES   REMARKS
CAPE GIRARDEAU MOCLDY    81  76  84 S6        29.97S
FARMINGTON     MOCLDY    79  73  83 S3        30.00S
POPLAR BLUFF   CLEAR     79  73  82 S5        29.96S
WEST PLAINS    CLEAR     80  70  71 SW6       30.02R

$$



USA.gov is the U.S. government's official web portal to all federal, state and local government web resources and services.